Ibiza, Spain

1:22 PM CEST on September 21, 2017 (GMT +0200)
Ibiza

Weather History for LEIB - February, 2013

Change the Weather History Date:

Saturday, February 16, 2013

  Actual Average Record
Temperature  
Mean Temperature 54 °F -  
Max Temperature 63 °F 59 °F 68 °F (2000)
Min Temperature 45 °F 47 °F 35 °F (2005)
Degree Days  
Heating Degree Days 11    
Growing Degree Days 4 (Base 50)    
Moisture  
Dew Point 50 °F    
Average Humidity 83    
Maximum Humidity 100    
Minimum Humidity 55    
Precipitation  
Precipitation 0.00 in 0.04 in - ()
Sea Level Pressure  
Sea Level Pressure 30.12 in    
Wind  
Wind Speed 5 mph ()    
Max Wind Speed 9 mph    
Max Gust Speed -    
Visibility 6.7 miles    
Events      
Averages and records for this station are not official NWS values.
T = Trace of Precipitation, MM = Missing Value Source: Averaged Metar Reports

Daily Weather History Graph

Daily Weather History Graph

Search for Another Location

Airport or City:

Trip Planner

Search our weather history database for the weather conditions in past years. The results will help you decide how hot, cold, wet, or windy it might be!

Date:

Astronomy

Feb. 16, 2013 Rise Set
Actual Time 7:44 AM CET 6:33 PM CET
Civil Twilight 7:17 AM CET 7:00 PM CET
Nautical Twilight 6:46 AM CET 7:31 PM CET
Astronomical Twilight 6:15 AM CET 8:02 PM CET
Moon 10:51 AM CET (2/16) 12:14 AM CET (2/16)
Length of Visible Light 11h 43m
Length of Day
10h 48m
Waxing Crescent, 37% of the Moon is Illuminated
Feb 16
Waxing Crescent
Feb 17
First Quarter
Feb 25
Full
Mar 4
Last Quarter
Mar 11
New

Hourly Weather History & Observations

Time (CET) Temp. Dew Point Humidity Pressure Visibility Wind Dir Wind Speed Gust Speed Precip Events Conditions
12:00 AM 46.4 °F 44.6 °F 93% 30.15 in 6.2 mi Variable 1.2 mph - N/A   Partly Cloudy
1:00 AM 47 °F 45 °F 92% 30.18 in 12 mi NNW 2.3 mph - -   Scattered Clouds
1:00 AM 48.2 °F 48.2 °F 100% 30.15 in 6.2 mi Variable 2.3 mph - N/A   Partly Cloudy
4:00 AM 53.6 °F 51.8 °F 94% 30.15 in 6.2 mi East 8.1 mph - N/A   Partly Cloudy
5:30 AM 55.4 °F 51.8 °F 88% 30.15 in 6.2 mi East 8.1 mph - N/A   Partly Cloudy
6:00 AM 55.4 °F 51.8 °F 88% 30.12 in 6.2 mi East 8.1 mph - N/A   Partly Cloudy
6:30 AM 55.4 °F 50.0 °F 82% 30.12 in 6.2 mi East 8.1 mph - N/A   Scattered Clouds
7:00 AM 54 °F 49 °F 77% 30.15 in 11 mi East 9.2 mph - -   Mostly Cloudy
7:00 AM 55.4 °F 50.0 °F 82% 30.12 in 6.2 mi East 8.1 mph - N/A   Mostly Cloudy
7:30 AM 55.4 °F 51.8 °F 88% 30.12 in 6.2 mi East 8.1 mph - N/A   Mostly Cloudy
8:00 AM 55.4 °F 50.0 °F 82% 30.15 in 6.2 mi East 6.9 mph - N/A   Mostly Cloudy
8:30 AM 55.4 °F 50.0 °F 82% 30.15 in 6.2 mi ESE 5.8 mph - N/A   Mostly Cloudy
9:00 AM 55.4 °F 50.0 °F 82% 30.15 in 6.2 mi East 8.1 mph - N/A   Scattered Clouds
9:30 AM 55.4 °F 50.0 °F 82% 30.15 in 6.2 mi ESE 8.1 mph - N/A   Scattered Clouds
10:00 AM 57.2 °F 50.0 °F 77% 30.15 in 6.2 mi ESE 9.2 mph - N/A   Scattered Clouds
10:30 AM 57.2 °F 50.0 °F 77% 30.15 in 6.2 mi ESE 8.1 mph - N/A   Scattered Clouds
11:00 AM 57.2 °F 51.8 °F 82% 30.15 in 6.2 mi ESE 6.9 mph - N/A   Scattered Clouds
11:30 AM 59.0 °F 51.8 °F 77% 30.15 in 6.2 mi SE 6.9 mph - N/A   Scattered Clouds
12:30 PM 59.0 °F 50.0 °F 72% 30.15 in 6.2 mi SSE 9.2 mph - N/A   Mostly Cloudy
1:00 PM 62 °F 50 °F 55% 30.16 in 12 mi SSE 9.2 mph - -   Partly Cloudy
1:00 PM 59.0 °F 51.8 °F 77% 30.15 in 6.2 mi SSE 9.2 mph - N/A   Mostly Cloudy
1:30 PM 60.8 °F 50.0 °F 68% 30.12 in 6.2 mi SE 6.9 mph - N/A   Scattered Clouds
2:00 PM 60.8 °F 50.0 °F 68% 30.12 in 6.2 mi SE 8.1 mph - N/A   Scattered Clouds
2:30 PM 59.0 °F 51.8 °F 77% 30.12 in 6.2 mi SE 6.9 mph - N/A   Scattered Clouds
3:00 PM 59.0 °F 50.0 °F 72% 30.09 in 6.2 mi SE 8.1 mph - N/A   Scattered Clouds
3:30 PM 59.0 °F 51.8 °F 77% 30.09 in 6.2 mi SE 6.9 mph - N/A   Scattered Clouds
4:00 PM 59.0 °F 51.8 °F 77% 30.09 in 6.2 mi East 9.2 mph - N/A   Partly Cloudy
4:30 PM 57.2 °F 51.8 °F 82% 30.09 in 6.2 mi East 8.1 mph - N/A   Partly Cloudy
5:00 PM 57.2 °F 51.8 °F 82% 30.09 in 6.2 mi SE 8.1 mph - N/A   Partly Cloudy
5:30 PM 57.2 °F 51.8 °F 82% 30.06 in 6.2 mi SSE 6.9 mph - N/A   Partly Cloudy
6:00 PM 57.2 °F 51.8 °F 82% 30.06 in 6.2 mi SE 8.1 mph - N/A   Scattered Clouds
6:30 PM 55.4 °F 51.8 °F 88% 30.06 in 6.2 mi SE 5.8 mph - N/A   Partly Cloudy
7:00 PM 55 °F 49 °F 76% 30.10 in 12 mi SE 4.6 mph - -   Scattered Clouds
7:00 PM 55.4 °F 51.8 °F 88% 30.09 in 6.2 mi SE 4.6 mph - N/A   Partly Cloudy
7:30 PM 55.4 °F 51.8 °F 88% 30.09 in 6.2 mi SE 3.5 mph - N/A   Partly Cloudy
8:00 PM 55.4 °F 51.8 °F 88% 30.09 in 6.2 mi Variable 2.3 mph - N/A   Partly Cloudy
8:30 PM 53.6 °F 51.8 °F 94% 30.09 in 6.2 mi Variable 2.3 mph - N/A   Partly Cloudy
10:00 PM 51.8 °F 50.0 °F 94% 30.09 in 6.2 mi Calm Calm - N/A   Partly Cloudy
10:30 PM 51.8 °F 50.0 °F 94% 30.09 in 6.2 mi Calm Calm - N/A   Scattered Clouds
11:00 PM 51.8 °F 50.0 °F 94% 30.09 in 6.2 mi Variable 1.2 mph - N/A   Partly Cloudy
11:30 PM 50.0 °F 50.0 °F 100% 30.06 in 6.2 mi Calm Calm - N/A   Scattered Clouds